BEL4LB LJLJ-EBBR

Flight info

Callsign BEL4LB
Flight time 1h 18m
Altitude 36000
Route SIMBA DCT MAMOR/N0391F240 L610 INBED DCT LOHRE DCT BATTY
Aircraft A320/M-DE3FGHIJ1LORVWY/H

Departure

Time 2026-04-14 10:29
Airport Ljubljana Jože Pučnik Airport (LJLJ)

Arrival

Time 2026-04-14 11:47
Airport Brussels Airport (EBBR)
Time Latitude Longitude Altitude Speed Heading
2026-04-14 09:55 46.23027 14.45420 1258 ft 0 kts 36°
2026-04-14 10:20 46.23018 14.45410 1268 ft 4 kts 36°
2026-04-14 10:21 46.22998 14.45389 1262 ft 4 kts 42°
2026-04-14 10:21 46.22986 14.45360 1263 ft 4 kts 97°
2026-04-14 10:21 46.22994 14.45330 1263 ft 1 kts 127°
2026-04-14 10:23 46.22992 14.45333 1262 ft 2 kts 127°
2026-04-14 10:23 46.22979 14.45358 1261 ft 5 kts 127°
2026-04-14 10:24 46.22950 14.45416 1264 ft 10 kts 126°
2026-04-14 10:24 46.22902 14.45510 1262 ft 14 kts 127°
2026-04-14 10:24 46.22822 14.45488 1260 ft 15 kts 218°
2026-04-14 10:24 46.22738 14.45503 1257 ft 15 kts 127°
2026-04-14 10:25 46.22665 14.45642 1256 ft 19 kts 128°
2026-04-14 10:25 46.22581 14.45805 1258 ft 20 kts 126°
2026-04-14 10:25 46.22492 14.45980 1242 ft 22 kts 126°
2026-04-14 10:25 46.22399 14.46161 1237 ft 24 kts 127°
2026-04-14 10:26 46.22296 14.46366 1232 ft 27 kts 127°
2026-04-14 10:26 46.22192 14.46566 1224 ft 21 kts 126°
2026-04-14 10:26 46.22099 14.46752 1217 ft 25 kts 126°
2026-04-14 10:26 46.21992 14.46962 1215 ft 27 kts 126°
2026-04-14 10:27 46.21875 14.47190 1212 ft 29 kts 127°
2026-04-14 10:27 46.21761 14.47414 1209 ft 21 kts 127°
2026-04-14 10:27 46.21677 14.47572 1198 ft 17 kts 126°
2026-04-14 10:27 46.21574 14.47549 1197 ft 18 kts 217°
2026-04-14 10:28 46.21511 14.47440 1199 ft 10 kts 299°
2026-04-14 10:28 46.21516 14.47430 1199 ft 0 kts 305°
2026-04-14 10:28 46.21525 14.47412 1199 ft 19 kts 304°
2026-04-14 10:29 46.21756 14.46958 1216 ft 89 kts 307°
2026-04-14 10:29 46.22238 14.46014 1244 ft 143 kts 306°
2026-04-14 10:29 46.22868 14.44787 1591 ft 155 kts 306°
2026-04-14 10:29 46.23500 14.43509 2252 ft 155 kts 301°
2026-04-14 10:30 46.23769 14.42023 2839 ft 157 kts 272°
2026-04-14 10:30 46.23850 14.40391 3165 ft 176 kts 276°
2026-04-14 10:30 46.23973 14.38496 3445 ft 199 kts 276°
2026-04-14 10:30 46.24117 14.36387 3729 ft 222 kts 277°
2026-04-14 10:31 46.24268 14.34158 4369 ft 229 kts 277°
2026-04-14 10:31 46.24423 14.31849 5098 ft 234 kts 277°
2026-04-14 10:31 46.24582 14.29488 5849 ft 238 kts 276°
2026-04-14 10:31 46.24741 14.27098 6566 ft 241 kts 275°
2026-04-14 10:32 46.24900 14.24671 7298 ft 243 kts 275°
2026-04-14 10:32 46.25059 14.22228 8051 ft 245 kts 274°
2026-04-14 10:32 46.25218 14.19770 8816 ft 247 kts 274°
2026-04-14 10:32 46.25380 14.17294 9620 ft 248 kts 273°
2026-04-14 10:33 46.25544 14.14802 10377 ft 250 kts 273°
2026-04-14 10:33 46.25708 14.12288 11070 ft 252 kts 273°
2026-04-14 10:33 46.26077 14.09755 11517 ft 271 kts 296°
2026-04-14 10:33 46.27319 14.07570 11753 ft 296 kts 316°
2026-04-14 10:34 46.30723 14.03451 12135 ft 343 kts 322°
2026-04-14 10:34 46.32672 14.01326 12547 ft 357 kts 323°
2026-04-14 10:34 46.34680 13.99179 13258 ft 361 kts 323°
2026-04-14 10:35 46.36719 13.97003 13913 ft 366 kts 323°
2026-04-14 10:35 46.38771 13.94798 14583 ft 369 kts 322°
2026-04-14 10:35 46.40837 13.92559 15233 ft 372 kts 322°
2026-04-14 10:35 46.42913 13.90298 15867 ft 376 kts 322°
2026-04-14 10:36 46.45015 13.88003 16466 ft 380 kts 322°
2026-04-14 10:36 46.47136 13.85680 17113 ft 383 kts 322°
2026-04-14 10:36 46.49272 13.83331 17680 ft 388 kts 322°
2026-04-14 10:36 46.51430 13.80948 18307 ft 393 kts 322°
2026-04-14 10:37 46.53619 13.78537 18870 ft 397 kts 322°
2026-04-14 10:37 46.55797 13.76138 19462 ft 399 kts 322°
2026-04-14 10:37 46.58003 13.73702 20091 ft 399 kts 322°
2026-04-14 10:37 46.60220 13.71244 20693 ft 402 kts 322°
2026-04-14 10:38 46.62444 13.68763 21231 ft 404 kts 322°
2026-04-14 10:38 46.64682 13.66258 21764 ft 407 kts 322°
2026-04-14 10:38 46.66937 13.63730 22293 ft 411 kts 322°
2026-04-14 10:38 46.69207 13.61184 22812 ft 414 kts 322°
2026-04-14 10:39 46.71496 13.58619 23332 ft 417 kts 322°
2026-04-14 10:39 46.73800 13.56034 23779 ft 420 kts 322°
2026-04-14 10:39 46.76116 13.53434 24192 ft 422 kts 322°
2026-04-14 10:39 46.78454 13.50818 24603 ft 424 kts 322°
2026-04-14 10:40 46.80642 13.47936 25018 ft 424 kts 309°
2026-04-14 10:40 46.82556 13.44651 25407 ft 425 kts 308°
2026-04-14 10:40 46.84466 13.41338 25800 ft 427 kts 308°
2026-04-14 10:40 46.86376 13.38007 26194 ft 429 kts 308°
2026-04-14 10:41 46.88291 13.34649 26586 ft 431 kts 308°
2026-04-14 10:41 46.90214 13.31261 26954 ft 433 kts 308°
2026-04-14 10:41 46.92141 13.27866 27320 ft 435 kts 308°
2026-04-14 10:41 46.94083 13.24447 27690 ft 437 kts 308°
2026-04-14 10:42 46.96031 13.21023 28074 ft 439 kts 308°
2026-04-14 10:42 46.97993 13.17582 28434 ft 441 kts 308°
2026-04-14 10:42 46.99964 13.14128 28782 ft 442 kts 308°
2026-04-14 10:42 47.01938 13.10656 29125 ft 444 kts 308°
2026-04-14 10:43 47.03914 13.07168 29449 ft 446 kts 307°
2026-04-14 10:43 47.05895 13.03659 29760 ft 448 kts 307°
2026-04-14 10:43 47.07883 13.00134 30096 ft 448 kts 307°
2026-04-14 10:43 47.09870 12.96608 30354 ft 449 kts 307°
2026-04-14 10:44 47.11865 12.93067 30583 ft 451 kts 307°
2026-04-14 10:44 47.13865 12.89517 30805 ft 452 kts 307°
2026-04-14 10:44 47.15873 12.85948 31026 ft 454 kts 307°
2026-04-14 10:44 47.17892 12.82358 31220 ft 456 kts 307°
2026-04-14 10:45 47.19884 12.78810 31520 ft 456 kts 306°
2026-04-14 10:45 47.21898 12.75221 31827 ft 455 kts 306°
2026-04-14 10:45 47.23906 12.71631 32142 ft 454 kts 306°
2026-04-14 10:45 47.25911 12.68044 32462 ft 453 kts 306°
2026-04-14 10:46 47.27908 12.64466 32803 ft 452 kts 306°
2026-04-14 10:46 47.29900 12.60888 33114 ft 451 kts 306°
2026-04-14 10:46 47.31888 12.57316 33441 ft 450 kts 306°
2026-04-14 10:46 47.33870 12.53752 33793 ft 448 kts 306°
2026-04-14 10:47 47.35846 12.50199 34135 ft 447 kts 305°
2026-04-14 10:47 47.37814 12.46654 34389 ft 446 kts 305°
2026-04-14 10:47 47.39776 12.43103 34605 ft 446 kts 305°
2026-04-14 10:47 47.41738 12.39550 34818 ft 446 kts 305°
2026-04-14 10:48 47.43697 12.35997 35030 ft 447 kts 306°
2026-04-14 10:48 47.45658 12.32435 35233 ft 447 kts 306°
2026-04-14 10:48 47.47619 12.28870 35438 ft 447 kts 306°
2026-04-14 10:48 47.49581 12.25300 35649 ft 448 kts 306°
2026-04-14 10:49 47.51544 12.21723 35839 ft 448 kts 306°
2026-04-14 10:49 47.53507 12.18150 36032 ft 448 kts 306°
2026-04-14 10:49 47.55470 12.14572 36105 ft 447 kts 306°
2026-04-14 10:50 47.59378 12.07425 36129 ft 446 kts 306°
2026-04-14 10:50 47.63260 12.00291 36115 ft 444 kts 306°
2026-04-14 10:51 47.67118 11.93219 36120 ft 444 kts 306°
2026-04-14 10:51 47.71000 11.86104 36132 ft 444 kts 306°
2026-04-14 10:52 47.74875 11.78972 36139 ft 444 kts 307°
2026-04-14 10:52 47.78743 11.71824 36139 ft 444 kts 307°
2026-04-14 10:53 47.82607 11.64668 36142 ft 443 kts 307°
2026-04-14 10:53 47.86466 11.57506 36145 ft 443 kts 307°
2026-04-14 10:54 47.90325 11.50331 36142 ft 444 kts 306°
2026-04-14 10:54 47.94182 11.43148 36145 ft 444 kts 307°
2026-04-14 10:55 47.98024 11.35951 36143 ft 443 kts 307°
2026-04-14 10:55 48.01861 11.28748 36141 ft 443 kts 307°
2026-04-14 10:56 48.05696 11.21542 36153 ft 443 kts 307°
2026-04-14 10:56 48.09499 11.14376 36160 ft 443 kts 307°
2026-04-14 10:57 48.13320 11.07147 36171 ft 443 kts 307°
2026-04-14 10:57 48.17137 10.99914 36177 ft 443 kts 307°
2026-04-14 10:58 48.20944 10.92664 36174 ft 443 kts 307°
2026-04-14 10:58 48.24749 10.85405 36169 ft 442 kts 307°
2026-04-14 10:59 48.28550 10.78150 36169 ft 442 kts 307°
2026-04-14 10:59 48.32345 10.70895 36184 ft 441 kts 307°
2026-04-14 11:00 48.36115 10.63648 36175 ft 440 kts 307°
2026-04-14 11:00 48.39871 10.56400 36170 ft 439 kts 307°
2026-04-14 11:01 48.43620 10.49145 36164 ft 439 kts 307°
2026-04-14 11:01 48.47342 10.41942 36163 ft 438 kts 307°
2026-04-14 11:02 48.51076 10.34686 36169 ft 438 kts 308°
2026-04-14 11:02 48.54797 10.27429 36170 ft 437 kts 308°
2026-04-14 11:03 48.58516 10.20181 36168 ft 436 kts 308°
2026-04-14 11:03 48.62228 10.12930 36166 ft 436 kts 307°
2026-04-14 11:04 48.65926 10.05672 36169 ft 435 kts 307°
2026-04-14 11:04 48.69609 9.98414 36162 ft 434 kts 308°
2026-04-14 11:05 48.73290 9.91158 36167 ft 434 kts 307°
2026-04-14 11:05 48.76954 9.83893 36164 ft 434 kts 307°
2026-04-14 11:06 48.80616 9.76627 36171 ft 434 kts 307°
2026-04-14 11:06 48.84273 9.69353 36180 ft 433 kts 307°
2026-04-14 11:07 48.87925 9.62066 36178 ft 433 kts 307°
2026-04-14 11:07 48.91572 9.54768 36177 ft 434 kts 307°
2026-04-14 11:08 48.95218 9.47454 36177 ft 434 kts 307°
2026-04-14 11:08 48.98839 9.40183 36171 ft 434 kts 307°
2026-04-14 11:09 49.02476 9.32843 36169 ft 434 kts 307°
2026-04-14 11:09 49.06105 9.25494 36163 ft 434 kts 307°
2026-04-14 11:10 49.11543 9.14449 36168 ft 434 kts 307°
2026-04-14 11:10 49.15170 9.07077 36167 ft 434 kts 307°
2026-04-14 11:11 49.18177 9.00935 36182 ft 434 kts 306°
2026-04-14 11:11 49.21790 8.93528 36174 ft 435 kts 306°
2026-04-14 11:12 49.25400 8.86109 36170 ft 435 kts 307°
2026-04-14 11:12 49.29013 8.78681 36175 ft 435 kts 307°
2026-04-14 11:13 49.32610 8.71258 36182 ft 435 kts 307°
2026-04-14 11:13 49.36211 8.63800 36189 ft 435 kts 307°
2026-04-14 11:14 49.39822 8.56358 36193 ft 435 kts 307°
2026-04-14 11:14 49.43436 8.48905 36193 ft 435 kts 307°
2026-04-14 11:15 49.47042 8.41446 36190 ft 435 kts 307°
2026-04-14 11:15 49.50615 8.34024 36189 ft 435 kts 307°
2026-04-14 11:16 49.54207 8.26546 36197 ft 435 kts 307°
2026-04-14 11:16 49.57796 8.19047 36196 ft 435 kts 307°
2026-04-14 11:17 49.61379 8.11542 36194 ft 435 kts 306°
2026-04-14 11:17 49.64948 8.04020 36204 ft 434 kts 307°
2026-04-14 11:18 49.68507 7.96508 36206 ft 433 kts 307°
2026-04-14 11:18 49.72065 7.89013 36214 ft 433 kts 307°
2026-04-14 11:19 49.75619 7.81514 36209 ft 432 kts 306°
2026-04-14 11:19 49.79155 7.73992 36204 ft 432 kts 306°
2026-04-14 11:20 49.82677 7.66462 36202 ft 432 kts 306°
2026-04-14 11:20 49.86200 7.58938 36200 ft 431 kts 306°
2026-04-14 11:21 49.89719 7.51426 36200 ft 430 kts 306°
2026-04-14 11:21 49.93222 7.43902 36206 ft 430 kts 306°
2026-04-14 11:22 49.96713 7.36385 35734 ft 428 kts 306°
2026-04-14 11:22 49.98452 7.32631 35028 ft 428 kts 306°
2026-04-14 11:22 50.00192 7.28867 34325 ft 429 kts 306°
2026-04-14 11:23 50.01930 7.25104 33573 ft 428 kts 307°
2026-04-14 11:23 50.03656 7.21364 33000 ft 423 kts 306°
2026-04-14 11:23 50.05356 7.17665 32422 ft 419 kts 306°
2026-04-14 11:23 50.07043 7.13989 31875 ft 415 kts 306°
2026-04-14 11:24 50.08717 7.10358 31321 ft 411 kts 306°
2026-04-14 11:24 50.10353 7.06804 30800 ft 408 kts 306°
2026-04-14 11:24 50.11994 7.03228 30275 ft 404 kts 306°
2026-04-14 11:24 50.13620 6.99677 29686 ft 401 kts 306°
2026-04-14 11:25 50.15230 6.96147 29099 ft 398 kts 306°
2026-04-14 11:25 50.16821 6.92649 28530 ft 394 kts 306°
2026-04-14 11:25 50.18402 6.89171 27970 ft 391 kts 306°
2026-04-14 11:25 50.19967 6.85726 27462 ft 387 kts 306°
2026-04-14 11:26 50.21515 6.82318 26965 ft 383 kts 306°
2026-04-14 11:26 50.23051 6.78933 26455 ft 380 kts 306°
2026-04-14 11:26 50.24573 6.75577 25961 ft 377 kts 306°
2026-04-14 11:26 50.26083 6.72242 25466 ft 375 kts 305°
2026-04-14 11:27 50.27585 6.68926 24990 ft 373 kts 305°
2026-04-14 11:27 50.29077 6.65628 24514 ft 370 kts 305°
2026-04-14 11:27 50.30558 6.62348 24039 ft 368 kts 305°
2026-04-14 11:27 50.32027 6.59079 23535 ft 366 kts 305°
2026-04-14 11:28 50.33489 6.55824 23004 ft 364 kts 305°
2026-04-14 11:28 50.34939 6.52590 22499 ft 362 kts 305°
2026-04-14 11:28 50.36376 6.49378 22012 ft 359 kts 305°
2026-04-14 11:28 50.37801 6.46184 21529 ft 357 kts 305°
2026-04-14 11:29 50.39217 6.43014 21090 ft 353 kts 305°
2026-04-14 11:29 50.40622 6.39874 20637 ft 350 kts 305°
2026-04-14 11:29 50.42016 6.36755 20184 ft 348 kts 305°
2026-04-14 11:29 50.43398 6.33655 19740 ft 346 kts 305°
2026-04-14 11:30 50.44774 6.30568 19308 ft 344 kts 305°
2026-04-14 11:30 50.46139 6.27503 18889 ft 342 kts 305°
2026-04-14 11:30 50.47498 6.24446 18467 ft 340 kts 305°
2026-04-14 11:30 50.48846 6.21407 18200 ft 339 kts 305°
2026-04-14 11:31 50.50190 6.18369 18202 ft 340 kts 305°
2026-04-14 11:31 50.51539 6.15316 18195 ft 340 kts 305°
2026-04-14 11:31 50.52889 6.12258 18206 ft 341 kts 305°
2026-04-14 11:31 50.54241 6.09201 18204 ft 341 kts 305°
2026-04-14 11:32 50.55593 6.06144 18209 ft 341 kts 305°
2026-04-14 11:32 50.56945 6.03082 18202 ft 340 kts 304°
2026-04-14 11:32 50.58291 6.00022 18202 ft 340 kts 304°
2026-04-14 11:32 50.59636 5.96958 18207 ft 340 kts 304°
2026-04-14 11:33 50.60978 5.93892 18208 ft 340 kts 304°
2026-04-14 11:33 50.62320 5.90825 18210 ft 340 kts 304°
2026-04-14 11:33 50.63662 5.87761 18208 ft 340 kts 304°
2026-04-14 11:34 50.66064 5.81408 17594 ft 336 kts 297°
2026-04-14 11:34 50.67103 5.78174 17138 ft 334 kts 297°
2026-04-14 11:34 50.68146 5.74918 16694 ft 333 kts 297°
2026-04-14 11:34 50.69191 5.71653 16099 ft 335 kts 297°
2026-04-14 11:35 50.70265 5.68302 15126 ft 350 kts 297°
2026-04-14 11:35 50.71377 5.64832 14384 ft 357 kts 297°
2026-04-14 11:35 50.72496 5.61336 13805 ft 357 kts 297°
2026-04-14 11:35 50.73611 5.57852 13260 ft 354 kts 297°
2026-04-14 11:36 50.74712 5.54406 12893 ft 347 kts 297°
2026-04-14 11:36 50.75780 5.51060 12375 ft 334 kts 296°
2026-04-14 11:36 50.76801 5.47859 11868 ft 319 kts 296°
2026-04-14 11:36 50.77777 5.44789 11367 ft 306 kts 296°
2026-04-14 11:37 50.78718 5.41837 10876 ft 296 kts 296°
2026-04-14 11:37 50.79627 5.38981 10397 ft 287 kts 296°
2026-04-14 11:37 50.80513 5.36194 9885 ft 282 kts 296°
2026-04-14 11:37 50.81386 5.33441 9345 ft 279 kts 296°
2026-04-14 11:38 50.82242 5.30707 8815 ft 278 kts 295°
2026-04-14 11:38 50.83087 5.27978 8466 ft 275 kts 295°
2026-04-14 11:38 50.83928 5.25281 8081 ft 272 kts 295°
2026-04-14 11:38 50.84750 5.22592 7687 ft 270 kts 294°
2026-04-14 11:39 50.85562 5.19914 7300 ft 269 kts 294°
2026-04-14 11:39 50.86364 5.17259 6918 ft 267 kts 294°
2026-04-14 11:39 50.87161 5.14616 6528 ft 265 kts 294°
2026-04-14 11:39 50.87952 5.11986 6105 ft 264 kts 294°
2026-04-14 11:40 50.88740 5.09378 5677 ft 262 kts 294°
2026-04-14 11:40 50.89528 5.06775 5245 ft 261 kts 295°
2026-04-14 11:40 50.90314 5.04188 4835 ft 260 kts 295°
2026-04-14 11:40 50.91093 5.01621 4431 ft 257 kts 295°
2026-04-14 11:41 50.91864 4.99070 4012 ft 256 kts 295°
2026-04-14 11:41 50.92446 4.96443 3680 ft 250 kts 278°
2026-04-14 11:41 50.92680 4.93762 3425 ft 242 kts 277°
2026-04-14 11:41 50.92903 4.91155 3166 ft 236 kts 277°
2026-04-14 11:42 50.93120 4.88605 2899 ft 230 kts 277°
2026-04-14 11:42 50.93331 4.86120 2640 ft 225 kts 277°
2026-04-14 11:42 50.93536 4.83682 2381 ft 222 kts 277°
2026-04-14 11:42 50.93734 4.81318 2268 ft 211 kts 277°
2026-04-14 11:43 50.93930 4.78949 2044 ft 218 kts 277°
2026-04-14 11:43 50.94122 4.76631 1995 ft 205 kts 277°
2026-04-14 11:43 50.94299 4.74463 2005 ft 192 kts 276°
2026-04-14 11:43 50.94464 4.72468 2020 ft 174 kts 276°
2026-04-14 11:44 50.94623 4.70545 2007 ft 178 kts 277°
2026-04-14 11:44 50.94785 4.68588 2003 ft 180 kts 276°
2026-04-14 11:44 50.94947 4.66624 2006 ft 180 kts 276°
2026-04-14 11:44 50.95101 4.64655 2006 ft 180 kts 272°
2026-04-14 11:45 50.94874 4.62777 1896 ft 172 kts 245°
2026-04-14 11:45 50.94373 4.61076 1670 ft 164 kts 244°
2026-04-14 11:45 50.93934 4.59535 1473 ft 148 kts 244°
2026-04-14 11:45 50.93509 4.58062 1194 ft 147 kts 244°
2026-04-14 11:46 50.93084 4.56604 1027 ft 144 kts 244°
2026-04-14 11:46 50.92664 4.55154 819 ft 143 kts 244°
2026-04-14 11:46 50.92234 4.53717 647 ft 145 kts 244°
2026-04-14 11:46 50.91816 4.52272 440 ft 143 kts 245°
2026-04-14 11:47 50.91412 4.50859 253 ft 140 kts 246°
2026-04-14 11:47 50.91019 4.49473 127 ft 131 kts 245°
2026-04-14 11:47 50.90692 4.48337 119 ft 91 kts 245°
2026-04-14 11:47 50.90509 4.47733 122 ft 17 kts 223°
2026-04-14 11:48 50.90440 4.47655 122 ft 12 kts 213°
2026-04-14 11:48 50.90377 4.47588 120 ft 10 kts 213°
2026-04-14 11:48 50.90317 4.47573 119 ft 9 kts 135°
2026-04-14 11:48 50.90326 4.47696 117 ft 14 kts 65°
2026-04-14 11:49 50.90366 4.47834 121 ft 14 kts 65°
2026-04-14 11:49 50.90404 4.47976 120 ft 14 kts 78°
2026-04-14 11:49 50.90366 4.48098 117 ft 12 kts 91°
2026-04-14 11:49 50.90381 4.48206 119 ft 8 kts 123°
2026-04-14 11:50 50.90341 4.48238 121 ft 6 kts 155°
2026-04-14 11:50 50.90310 4.48260 119 ft 2 kts 155°
2026-04-14 11:50 50.90307 4.48262 117 ft 0 kts 155°